Time,TemperatureF,DewpointF,PressureIn,WindDirection,WindDirectionDegrees,WindSpeedMPH,WindSpeedGustMPH,Humidity,HourlyPrecipIn,Conditions,Clouds,dailyrainin,SoftwareType,DateUTC
2013-05-22 00:04:00,63.2,59.0,29.79,South,183,0.0,-999.0,87,-99.99,,,0.00,weatherlink.com 1.10,2013-05-22 07:04:00,
2013-05-22 00:19:00,63.1,59.0,29.79,SW,229,0.0,-999.0,87,-99.99,,,0.00,weatherlink.com 1.10,2013-05-22 07:19:00,
2013-05-22 00:34:00,63.1,59.0,29.79,SW,227,3.0,-999.0,87,-99.99,,,0.00,weatherlink.com 1.10,2013-05-22 07:34:00,
2013-05-22 00:49:00,63.2,59.0,29.79,WSW,237,0.0,-999.0,87,-99.99,,,0.00,weatherlink.com 1.10,2013-05-22 07:49:00,
2013-05-22 01:04:00,63.3,59.0,29.78,South,174,0.0,-999.0,86,-99.99,,,0.00,weatherlink.com 1.10,2013-05-22 08:04:00,
2013-05-22 01:19:00,63.5,59.0,29.78,SSE,149,0.0,-999.0,86,-99.99,,,0.00,weatherlink.com 1.10,2013-05-22 08:19:00,
2013-05-22 01:34:00,63.5,59.0,29.77,SW,219,0.0,-999.0,86,-99.99,,,0.00,weatherlink.com 1.10,2013-05-22 08:34:00,
2013-05-22 01:49:00,63.5,59.0,29.77,SW,219,0.0,-999.0,85,-99.99,,,0.00,weatherlink.com 1.10,2013-05-22 08:49:00,
2013-05-22 02:04:00,63.6,59.0,29.77,SE,136,2.0,-999.0,85,-99.99,,,0.00,weatherlink.com 1.10,2013-05-22 09:04:00,
2013-05-22 02:19:00,63.8,59.0,29.76,SSE,161,4.0,-999.0,84,-99.99,,,0.00,weatherlink.com 1.10,2013-05-22 09:19:00,
2013-05-22 02:34:00,63.9,59.0,29.75,South,173,0.0,-999.0,83,-99.99,,,0.00,weatherlink.com 1.10,2013-05-22 09:34:00,
2013-05-22 02:49:00,63.8,58.0,29.75,SSW,211,0.0,-999.0,82,-99.99,,,0.00,weatherlink.com 1.10,2013-05-22 09:49:00,
2013-05-22 03:04:00,63.8,58.0,29.75,South,180,0.0,-999.0,81,-99.99,,,0.00,weatherlink.com 1.10,2013-05-22 10:04:00,
2013-05-22 03:19:00,63.8,58.0,29.74,South,186,0.0,-999.0,80,-99.99,,,0.00,weatherlink.com 1.10,2013-05-22 10:19:00,
2013-05-22 03:34:00,63.8,58.0,29.74,South,189,0.0,-999.0,80,-99.99,,,0.00,weatherlink.com 1.10,2013-05-22 10:34:00,
2013-05-22 03:49:00,63.8,58.0,29.74,SSW,193,2.0,-999.0,80,-99.99,,,0.00,weatherlink.com 1.10,2013-05-22 10:49:00,
2013-05-22 04:04:00,63.8,57.0,29.74,SSE,163,0.0,-999.0,79,-99.99,,,0.00,weatherlink.com 1.10,2013-05-22 11:04:00,
2013-05-22 04:19:00,63.8,57.0,29.74,SSW,210,1.0,-999.0,79,-99.99,,,0.00,weatherlink.com 1.10,2013-05-22 11:19:00,
2013-05-22 04:34:00,63.8,57.0,29.73,SE,146,1.0,-999.0,79,-99.99,,,0.00,weatherlink.com 1.10,2013-05-22 11:34:00,
2013-05-22 04:49:00,63.8,57.0,29.73,South,169,0.0,-999.0,79,-99.99,,,0.00,weatherlink.com 1.10,2013-05-22 11:49:00,
2013-05-22 05:04:00,63.8,57.0,29.73,South,173,2.0,-999.0,79,-99.99,,,0.00,weatherlink.com 1.10,2013-05-22 12:04:00,
2013-05-22 05:19:00,63.8,57.0,29.74,South,174,0.0,-999.0,79,-99.99,,,0.00,weatherlink.com 1.10,2013-05-22 12:19:00,
2013-05-22 05:34:00,63.9,57.0,29.74,SSE,168,1.0,-999.0,79,-99.99,,,0.00,weatherlink.com 1.10,2013-05-22 12:34:00,
2013-05-22 05:49:00,63.9,57.0,29.74,South,187,2.0,-999.0,79,-99.99,,,0.00,weatherlink.com 1.10,2013-05-22 12:49:00,
2013-05-22 06:04:00,63.8,57.0,29.74,SSW,205,0.0,-999.0,79,-99.99,,,0.00,weatherlink.com 1.10,2013-05-22 13:04:00,
2013-05-22 06:19:00,63.8,58.0,29.74,SSW,202,4.0,-999.0,80,-99.99,,,0.00,weatherlink.com 1.10,2013-05-22 13:19:00,
2013-05-22 06:34:00,63.7,57.0,29.75,South,188,4.0,-999.0,80,-99.99,,,0.00,weatherlink.com 1.10,2013-05-22 13:34:00,
2013-05-22 06:49:00,63.8,58.0,29.75,SSW,209,1.0,-999.0,80,-99.99,,,0.00,weatherlink.com 1.10,2013-05-22 13:49:00,
2013-05-22 07:04:00,63.8,58.0,29.75,South,190,0.0,-999.0,80,-99.99,,,0.00,weatherlink.com 1.10,2013-05-22 14:04:00,
2013-05-22 07:19:00,63.9,58.0,29.76,SSW,207,2.0,-999.0,80,-99.99,,,0.00,weatherlink.com 1.10,2013-05-22 14:19:00,
2013-05-22 07:34:00,64.0,57.0,29.76,SSW,211,0.0,-999.0,79,-99.99,,,0.00,weatherlink.com 1.10,2013-05-22 14:34:00,
2013-05-22 07:49:00,64.1,57.0,29.76,SSE,166,2.0,-999.0,78,-99.99,,,0.00,weatherlink.com 1.10,2013-05-22 14:49:00,
2013-05-22 08:04:00,64.5,57.0,29.76,SSW,204,2.0,-999.0,76,-99.99,,,0.00,weatherlink.com 1.10,2013-05-22 15:04:00,
2013-05-22 08:19:00,64.6,57.0,29.77,SSE,165,0.0,-999.0,75,-99.99,,,0.00,weatherlink.com 1.10,2013-05-22 15:19:00,
2013-05-22 08:34:00,64.8,57.0,29.77,East,101,5.0,-999.0,75,-99.99,,,0.00,weatherlink.com 1.10,2013-05-22 15:34:00,
2013-05-22 08:49:00,65.1,57.0,29.77,SSE,161,2.0,-999.0,74,-99.99,,,0.00,weatherlink.com 1.10,2013-05-22 15:49:00,
2013-05-22 09:04:00,65.4,57.0,29.77,SE,124,0.0,-999.0,74,-99.99,,,0.00,weatherlink.com 1.10,2013-05-22 16:04:00,
2013-05-22 09:20:00,65.8,57.0,29.77,South,169,0.0,-999.0,73,-99.99,,,0.00,weatherlink.com 1.10,2013-05-22 16:20:00,
2013-05-22 09:35:00,66.4,58.0,29.77,SW,233,1.0,-999.0,75,-99.99,,,0.00,weatherlink.com 1.10,2013-05-22 16:35:00,
2013-05-22 09:50:00,66.3,59.0,29.77,SW,228,3.0,-999.0,77,-99.99,,,0.00,weatherlink.com 1.10,2013-05-22 16:50:00,
2013-05-22 10:05:00,66.8,59.0,29.77,SSW,211,2.0,-999.0,76,-99.99,,,0.00,weatherlink.com 1.10,2013-05-22 17:05:00,
2013-05-22 10:20:00,67.3,60.0,29.77,SW,228,0.0,-999.0,76,-99.99,,,0.00,weatherlink.com 1.10,2013-05-22 17:20:00,
2013-05-22 10:35:00,67.7,59.0,29.77,SSW,207,1.0,-999.0,73,-99.99,,,0.00,weatherlink.com 1.10,2013-05-22 17:35:00,
2013-05-22 10:50:00,67.9,59.0,29.77,WSW,239,4.0,-999.0,72,-99.99,,,0.00,weatherlink.com 1.10,2013-05-22 17:50:00,
2013-05-22 11:05:00,68.0,58.0,29.77,SW,217,1.0,-999.0,70,-99.99,,,0.00,weatherlink.com 1.10,2013-05-22 18:05:00,
2013-05-22 11:20:00,68.4,59.0,29.77,SSW,205,0.0,-999.0,71,-99.99,,,0.00,weatherlink.com 1.10,2013-05-22 18:20:00,
2013-05-22 11:35:00,69.3,59.0,29.77,WSW,247,6.0,-999.0,70,-99.99,,,0.00,weatherlink.com 1.10,2013-05-22 18:35:00,
2013-05-22 11:50:00,69.6,59.0,29.77,WSW,248,1.0,-999.0,69,-99.99,,,0.00,weatherlink.com 1.10,2013-05-22 18:50:00,
2013-05-22 12:05:00,70.0,59.0,29.77,SW,226,5.0,-999.0,68,-99.99,,,0.00,weatherlink.com 1.10,2013-05-22 19:05:00,
2013-05-22 12:35:00,71.9,59.0,29.76,WNW,290,3.0,-999.0,65,-99.99,,,0.00,weatherlink.com 1.10,2013-05-22 19:35:00,
2013-05-22 12:50:00,70.5,59.0,29.76,WSW,256,1.0,-999.0,67,-99.99,,,0.00,weatherlink.com 1.10,2013-05-22 19:50:00,
2013-05-22 13:05:00,71.2,60.0,29.75,SSW,201,5.0,-999.0,67,-99.99,,,0.00,weatherlink.com 1.10,2013-05-22 20:05:00,
2013-05-22 13:20:00,73.9,60.0,29.75,South,191,2.0,-999.0,62,-99.99,,,0.00,weatherlink.com 1.10,2013-05-22 20:20:00,
2013-05-22 13:35:00,73.7,59.0,29.75,SW,229,6.0,-999.0,61,-99.99,,,0.00,weatherlink.com 1.10,2013-05-22 20:35:00,
2013-05-22 13:50:00,73.1,59.0,29.75,WSW,240,2.0,-999.0,62,-99.99,,,0.00,weatherlink.com 1.10,2013-05-22 20:50:00,
2013-05-22 14:05:00,73.1,59.0,29.74,WSW,247,7.0,-999.0,62,-99.99,,,0.00,weatherlink.com 1.10,2013-05-22 21:05:00,
2013-05-22 14:20:00,73.6,59.0,29.74,SW,224,2.0,-999.0,61,-99.99,,,0.00,weatherlink.com 1.10,2013-05-22 21:20:00,
2013-05-22 14:35:00,73.4,59.0,29.74,WSW,242,4.0,-999.0,61,-99.99,,,0.00,weatherlink.com 1.10,2013-05-22 21:35:00,
2013-05-22 14:50:00,73.3,59.0,29.74,WSW,237,6.0,-999.0,61,-99.99,,,0.00,weatherlink.com 1.10,2013-05-22 21:50:00,
2013-05-22 15:05:00,73.3,59.0,29.73,SW,232,10.0,-999.0,62,-99.99,,,0.00,weatherlink.com 1.10,2013-05-22 22:05:00,
2013-05-22 15:20:00,72.4,60.0,29.73,SW,230,4.0,-999.0,66,-99.99,,,0.00,weatherlink.com 1.10,2013-05-22 22:20:00,
2013-05-22 15:35:00,72.8,60.0,29.73,WSW,242,4.0,-999.0,64,-99.99,,,0.00,weatherlink.com 1.10,2013-05-22 22:35:00,
2013-05-22 15:50:00,72.6,61.0,29.73,SSE,161,6.0,-999.0,66,-99.99,,,0.00,weatherlink.com 1.10,2013-05-22 22:50:00,
2013-05-22 16:05:00,72.4,60.0,29.72,SSW,211,6.0,-999.0,66,-99.99,,,0.00,weatherlink.com 1.10,2013-05-22 23:05:00,
2013-05-22 16:20:00,71.7,60.0,29.72,SSW,203,3.0,-999.0,66,-99.99,,,0.00,weatherlink.com 1.10,2013-05-22 23:20:00,
2013-05-22 16:35:00,71.4,59.0,29.72,SSW,213,5.0,-999.0,66,-99.99,,,0.00,weatherlink.com 1.10,2013-05-22 23:35:00,
2013-05-22 16:50:00,71.7,59.0,29.72,SSW,210,4.0,-999.0,65,-99.99,,,0.00,weatherlink.com 1.10,2013-05-22 23:50:00,
2013-05-22 17:05:00,71.2,59.0,29.71,SSW,205,3.0,-999.0,66,-99.99,,,0.00,weatherlink.com 1.10,2013-05-23 00:05:00,
2013-05-22 17:20:00,72.2,60.0,29.71,SW,236,2.0,-999.0,66,-99.99,,,0.00,weatherlink.com 1.10,2013-05-23 00:20:00,
2013-05-22 17:35:00,72.9,60.0,29.71,NW,313,3.0,-999.0,64,-99.99,,,0.00,weatherlink.com 1.10,2013-05-23 00:35:00,
2013-05-22 17:50:00,72.0,60.0,29.71,NNW,346,3.0,-999.0,66,-99.99,,,0.00,weatherlink.com 1.10,2013-05-23 00:50:00,
2013-05-22 18:05:00,71.4,59.0,29.71,WNW,286,0.0,-999.0,66,-99.99,,,0.00,weatherlink.com 1.10,2013-05-23 01:05:00,
2013-05-22 18:20:00,70.4,59.0,29.71,NW,321,3.0,-999.0,67,-99.99,,,0.00,weatherlink.com 1.10,2013-05-23 01:20:00,
2013-05-22 18:35:00,69.4,59.0,29.71,NNW,342,0.0,-999.0,69,-99.99,,,0.00,weatherlink.com 1.10,2013-05-23 01:35:00,
2013-05-22 18:50:00,68.8,59.0,29.71,NNE,23,3.0,-999.0,70,-99.99,,,0.00,weatherlink.com 1.10,2013-05-23 01:50:00,
2013-05-22 19:05:00,67.9,58.0,29.72,NNW,333,1.0,-999.0,70,-99.99,,,0.00,weatherlink.com 1.10,2013-05-23 02:05:00,
2013-05-22 19:20:00,67.6,58.0,29.72,North,351,1.0,-999.0,71,-99.99,,,0.00,weatherlink.com 1.10,2013-05-23 02:20:00,
2013-05-22 19:35:00,67.0,57.0,29.72,North,350,0.0,-999.0,71,-99.99,,,0.00,weatherlink.com 1.10,2013-05-23 02:35:00,
2013-05-22 19:50:00,66.5,57.0,29.72,North,350,0.0,-999.0,72,-99.99,,,0.00,weatherlink.com 1.10,2013-05-23 02:50:00,
2013-05-22 20:20:00,64.9,57.0,29.73,SW,229,3.0,-999.0,75,-99.99,,,0.00,weatherlink.com 1.10,2013-05-23 03:20:00,
2013-05-22 20:35:00,64.1,56.0,29.74,SW,225,4.0,-999.0,76,-99.99,,,0.00,weatherlink.com 1.10,2013-05-23 03:35:00,
2013-05-22 20:50:00,63.6,57.0,29.74,SW,225,5.0,-999.0,78,-99.99,,,0.00,weatherlink.com 1.10,2013-05-23 03:50:00,
2013-05-22 21:05:00,63.6,57.0,29.74,WSW,240,5.0,-999.0,79,-99.99,,,0.00,weatherlink.com 1.10,2013-05-23 04:05:00,
2013-05-22 22:21:00,63.1,57.0,29.77,SW,217,0.0,-999.0,79,-99.99,,,0.00,weatherlink.com 1.10,2013-05-23 05:21:00,
2013-05-22 22:36:00,63.0,56.0,29.77,SW,226,6.0,-999.0,78,-99.99,,,0.00,weatherlink.com 1.10,2013-05-23 05:36:00,
2013-05-22 22:51:00,62.9,56.0,29.77,SW,221,3.0,-999.0,78,-99.99,,,0.00,weatherlink.com 1.10,2013-05-23 05:51:00,
2013-05-22 23:06:00,62.9,56.0,29.77,SW,214,1.0,-999.0,77,-99.99,,,0.00,weatherlink.com 1.10,2013-05-23 06:06:00,
2013-05-22 23:21:00,63.0,56.0,29.77,SSW,208,2.0,-999.0,77,-99.99,,,0.00,weatherlink.com 1.10,2013-05-23 06:21:00,
2013-05-22 23:36:00,63.0,56.0,29.76,SW,228,0.0,-999.0,78,-99.99,,,0.00,weatherlink.com 1.10,2013-05-23 06:36:00,
2013-05-22 23:51:00,63.1,56.0,29.77,SW,228,0.0,-999.0,78,-99.99,,,0.00,weatherlink.com 1.10,2013-05-23 06:51:00,